FW8366 Weather Reports


Display with metric or nautical units.
time (UTC)temp
F
wind
direction
speed
MPH
gust
MPH
rain 1hr
in
rain 24hr
in
rain mn
in
humidity
%
barometer
mb
20260906234629 85 42 1.0 1.0 0.00 0.00 0.00 67 1014.4
20260906234124 86 29 0.0 1.0 0.00 0.00 0.00 65 1014.8
20260906233623 86 28 0.0 0.0 0.00 0.00 0.00 63 1014.8
20260906233122 86 28 0.0 0.0 0.00 0.00 0.00 62 1014.8
20260906232618 86 56 0.0 1.0 0.00 0.00 0.00 62 1014.8
20260906232118 86 22 0.0 1.0 0.00 0.00 0.00 62 1014.8
20260906231618 85 204 0.0 0.0 0.00 0.00 0.00 63 1014.8
20260906231114 85 203 0.0 1.0 0.00 0.00 0.00 63 1014.8
20260906230612 85 53 0.0 1.0 0.00 0.00 0.00 62 1014.8
20260906230107 84 3 0.0 0.0 0.00 0.00 0.00 64 1014.8
20260906225606 84 3 0.0 0.0 0.00 0.00 0.00 66 1014.8
20260906225103 84 3 0.0 1.0 0.00 0.00 0.00 67 1014.8
20260906224557 83 6 1.0 2.0 0.00 0.00 0.00 68 1014.8
20260906224054 83 341 1.0 2.0 0.00 0.00 0.00 68 1014.8
20260906223550 82 295 0.0 2.0 0.00 0.00 0.00 69 1014.8
20260906223049 82 289 1.0 1.0 0.00 0.00 0.00 69 1014.8
20260906222549 82 2 1.0 1.0 0.00 0.00 0.00 70 1014.8
20260906222046 82 4 1.0 1.0 0.00 0.00 0.00 72 1015.1
20260906221545 82 16 0.0 1.0 0.00 0.00 0.00 72 1015.4
20260906221041 82 11 1.0 1.0 0.00 0.00 0.00 72 1015.4
20260906220540 82 335 1.0 1.0 0.00 0.00 0.00 72 1015.4
20260906220036 81 14 1.0 1.0 0.00 0.00 0.00 72 1015.4
20260906215535 81 284 2.0 2.0 0.00 0.00 0.00 73 1015.4
20260906215033 81 311 1.0 1.0 0.00 0.00 0.00 74 1015.4
20260906214532 81 81 2.0 2.0 0.00 0.00 0.00 74 1015.4
20260906214027 80 249 2.0 3.0 0.00 0.00 0.00 75 1015.4
20260906213526 80 272 1.0 2.0 0.00 0.00 0.00 76 1015.8
20260906213021 80 8 2.0 2.0 0.00 0.00 0.00 76 1015.8
20260906212515 80 49 1.0 2.0 0.00 0.00 0.00 77 1015.8
20260906212010 80 321 1.0 3.0 0.00 0.00 0.00 78 1015.8
20260906211510 79 313 2.0 6.0 0.00 0.00 0.00 79 1015.8
20260906211006 79 329 2.0 4.0 0.00 0.00 0.00 80 1016.2
20260906210501 79 303 3.0 10.0 0.00 0.00 0.00 81 1016.5
20260906210000 79 310 3.0 8.0 0.00 0.00 0.00 79 1016.5
20260906205456 79 274 3.0 3.0 0.00 0.00 0.00 79 1016.5
20260906204952 79 301 2.0 2.0 0.00 0.00 0.00 80 1016.5
20260906204451 78 6 3.0 4.0 0.00 0.00 0.00 80 1016.5
20260906203950 79 6 2.0 3.0 0.00 0.00 0.00 80 1016.5
20260906203446 79 350 2.0 3.0 0.00 0.00 0.00 78 1016.5
20260906202943 79 358 2.0 3.0 0.00 0.00 0.00 78 1016.5
20260906202442 80 27 1.0 3.0 0.00 0.00 0.00 78 1016.2
20260906201937 81 317 1.0 4.0 0.00 0.00 0.00 75 1016.2
20260906201432 81 326 2.0 3.0 0.00 0.00 0.00 72 1016.5
20260906200926 81 353 3.0 6.0 0.00 0.00 0.00 71 1016.5
20260906200418 81 306 2.0 6.0 0.00 0.00 0.00 70 1016.5
20260906195917 82 16 3.0 6.0 0.00 0.00 0.00 69 1016.2
20260906195414 83 30 3.0 7.0 0.00 0.00 0.00 66 1015.8
20260906194910 86 57 2.0 8.0 0.00 0.00 0.00 63 1015.8
20260906194405 87 5 4.0 4.0 0.00 0.00 0.00 58 1015.8
20260906193900 92 26 4.0 8.0 0.00 0.00 0.00 50 1016.2
20260906193355 93 85 1.0 2.0 0.00 0.00 0.00 46 1016.2
20260906192851 93 93 1.0 1.0 0.00 0.00 0.00 43 1015.8
20260906192350 94 185 1.0 3.0 0.00 0.00 0.00 43 1016.2
20260906191850 95 151 2.0 4.0 0.00 0.00 0.00 42 1015.8
20260906191345 95 298 1.0 2.0 0.00 0.00 0.00 41 1016.2
20260906190844 96 156 2.0 3.0 0.00 0.00 0.00 40 1016.2
20260906190344 96 266 2.0 4.0 0.00 0.00 0.00 41 1016.2
20260906185839 97 71 2.0 3.0 0.00 0.00 0.00 39 1016.2
20260906185337 95 128 1.0 2.0 0.00 0.00 0.00 41 1016.2
20260906184832 95 306 1.0 2.0 0.00 0.00 0.00 42 1016.2
20260906184327 95 84 1.0 2.0 0.00 0.00 0.00 41 1016.5
20260906183822 98 42 2.0 3.0 0.00 0.00 0.00 39 1016.5
20260906183319 98 111 1.0 2.0 0.00 0.00 0.00 39 1016.5
20260906182819 97 62 1.0 2.0 0.00 0.00 0.00 39 1016.5
20260906182315 97 18 1.0 2.0 0.00 0.00 0.00 40 1016.5
20260906181814 97 252 2.0 2.0 0.00 0.00 0.00 41 1016.9
20260906181311 95 112 1.0 3.0 0.00 0.00 0.00 42 1016.9
20260906180806 94 344 2.0 3.0 0.00 0.00 0.00 45 1016.9
20260906180301 95 293 1.0 3.0 0.00 0.00 0.00 43 1016.9
20260906175758 96 166 1.0 3.0 0.00 0.00 0.00 43 1016.9
20260906175254 95 120 1.0 3.0 0.00 0.00 0.00 43 1017.2
20260906174752 96 146 2.0 3.0 0.00 0.00 0.00 41 1017.6
20260906174252 95 294 2.0 3.0 0.00 0.00 0.00 43 1017.2
20260906173747 94 274 0.0 2.0 0.00 0.00 0.00 44 1017.6
20260906173243 95 94 1.0 3.0 0.00 0.00 0.00 43 1017.6
20260906172742 95 102 1.0 2.0 0.00 0.00 0.00 40 1017.6
20260906172237 93 145 0.0 2.0 0.00 0.00 0.00 42 1017.9
20260906171732 94 143 1.0 2.0 0.00 0.00 0.00 45 1017.9
20260906171228 95 138 2.0 3.0 0.00 0.00 0.00 44 1017.9
20260906170723 94 186 3.0 4.0 0.00 0.00 0.00 47 1017.9
20260906170218 94 214 2.0 3.0 0.00 0.00 0.00 47 1017.9
20260906165715 94 84 0.0 2.0 0.00 0.00 0.00 47 1017.9
20260906165209 93 253 1.0 2.0 0.00 0.00 0.00 49 1017.9
20260906164709 92 231 1.0 3.0 0.00 0.00 0.00 50 1017.9
20260906164204 92 81 0.0 1.0 0.00 0.00 0.00 51 1017.9
20260906163700 92 184 2.0 3.0 0.00 0.00 0.00 50 1018.3
20260906163156 92 222 0.0 2.0 0.00 0.00 0.00 50 1017.9
20260906162653 92 115 1.0 2.0 0.00 0.00 0.00 50 1018.3
20260906162152 90 212 1.0 1.0 0.00 0.00 0.00 52 1018.3
20260906161647 90 205 2.0 3.0 0.00 0.00 0.00 52 1017.9
20260906161146 90 305 1.0 2.0 0.00 0.00 0.00 52 1017.9
20260906160645 90 337 1.0 3.0 0.00 0.00 0.00 53 1017.9
20260906160144 89 144 1.0 2.0 0.00 0.00 0.00 54 1017.9
20260906155642 89 227 3.0 4.0 0.00 0.00 0.00 52 1018.3
20260906155138 89 101 1.0 2.0 0.00 0.00 0.00 55 1017.9
20260906154633 88 229 1.0 2.0 0.00 0.00 0.00 55 1017.9
20260906154133 88 270 2.0 3.0 0.00 0.00 0.00 56 1017.6
20260906153631 88 239 2.0 6.0 0.00 0.00 0.00 56 1017.9
20260906153127 88 118 0.0 3.0 0.00 0.00 0.00 57 1017.9
20260906152621 87 151 1.0 2.0 0.00 0.00 0.00 59 1017.6
20260906152121 87 310 0.0 2.0 0.00 0.00 0.00 60 1017.9
20260906151616 87 138 1.0 3.0 0.00 0.00 0.00 60 1017.9
20260906151112 87 185 1.0 1.0 0.00 0.00 0.00 60 1017.6
20260906150607 86 321 0.0 1.0 0.00 0.00 0.00 62 1017.9
20260906145601 85 167 1.0 1.0 0.00 0.00 0.00 64 1017.6
20260906145055 84 67 1.0 1.0 0.00 0.00 0.00 66 1017.6
20260906144550 84 143 1.0 2.0 0.00 0.00 0.00 67 1017.6
20260906144046 84 288 1.0 2.0 0.00 0.00 0.00 67 1017.6
20260906143540 83 114 1.0 1.0 0.00 0.00 0.00 69 1017.6
20260906143038 83 247 1.0 2.0 0.00 0.00 0.00 70 1017.6
20260906142537 82 184 1.0 1.0 0.00 0.00 0.00 71 1017.6
20260906142032 82 148 1.0 2.0 0.00 0.00 0.00 72 1017.6
20260906141531 81 144 1.0 3.0 0.00 0.00 0.00 74 1017.6
20260906141027 81 254 1.0 4.0 0.00 0.00 0.00 75 1017.6
20260906140520 80 134 1.0 2.0 0.00 0.00 0.00 77 1017.6
20260906140020 79 78 0.0 1.0 0.00 0.00 0.00 79 1017.6
20260906135517 78 179 1.0 2.0 0.00 0.00 0.00 80 1017.2
20260906135013 78 115 1.0 1.0 0.00 0.00 0.00 81 1017.2
20260906134508 77 108 0.0 1.0 0.00 0.00 0.00 82 1017.2
20260906134008 77 40 0.0 1.0 0.00 0.00 0.00 82 1017.2
20260906133504 77 115 1.0 1.0 0.00 0.00 0.00 82 1017.2
20260906133000 77 193 0.0 1.0 0.00 0.00 0.00 82 1017.2
20260906132454 76 300 1.0 1.0 0.00 0.00 0.00 83 1017.2
20260906131949 76 166 0.0 1.0 0.00 0.00 0.00 83 1016.9
20260906131445 76 174 0.0 1.0 0.00 0.00 0.00 83 1016.9
20260906130941 75 186 0.0 1.0 0.00 0.00 0.00 83 1016.9
20260906130439 75 171 0.0 0.0 0.00 0.00 0.00 83 1016.9
20260906125935 75 171 0.0 1.0 0.00 0.00 0.00 84 1016.5
20260906125432 74 190 0.0 1.0 0.00 0.00 0.00 84 1016.5
20260906124931 74 131 0.0 0.0 0.00 0.00 0.00 84 1016.5
20260906124428 74 209 0.0 1.0 0.00 0.00 0.00 84 1016.5
20260906123927 74 118 0.0 0.0 0.00 0.00 0.00 84 1016.5
20260906123427 74 119 0.0 0.0 0.00 0.00 0.00 84 1016.5
20260906122922 74 96 0.0 0.0 0.00 0.00 0.00 83 1016.5
20260906122422 74 98 0.0 1.0 0.00 0.00 0.00 83 1016.5
20260906121919 74 171 0.0 0.0 0.00 0.00 0.00 83 1016.2
20260906121414 74 171 0.0 0.0 0.00 0.00 0.00 83 1016.2
20260906120911 74 171 0.0 0.0 0.00 0.00 0.00 83 1016.2
20260906120406 74 171 0.0 0.0 0.00 0.00 0.00 83 1016.2
20260906115902 74 171 0.0 0.0 0.00 0.00 0.00 84 1016.2
20260906115357 74 170 0.0 0.0 0.00 0.00 0.00 84 1016.2
20260906114856 74 171 0.0 0.0 0.00 0.00 0.00 83 1015.8
20260906114352 74 132 0.0 0.0 0.00 0.00 0.00 83 1015.8
20260906113847 74 193 0.0 0.0 0.00 0.00 0.00 82 1015.8
20260906113346 74 199 0.0 1.0 0.00 0.00 0.00 82 1015.8
20260906112841 75 199 0.0 1.0 0.00 0.00 0.00 81 1015.8
20260906112337 75 191 1.0 1.0 0.00 0.00 0.00 81 1015.4
20260906111832 75 60 0.0 0.0 0.00 0.00 0.00 82 1015.4
20260906111332 75 59 0.0 0.0 0.00 0.00 0.00 82 1015.4
20260906110827 75 59 0.0 0.0 0.00 0.00 0.00 82 1015.4
20260906110323 75 59 0.0 0.0 0.00 0.00 0.00 82 1015.4
20260906105821 75 59 0.0 0.0 0.00 0.00 0.00 82 1015.4
20260906105317 75 59 0.0 0.0 0.00 0.00 0.00 82 1015.4
20260906104813 75 59 0.0 0.0 0.00 0.00 0.00 82 1015.4
20260906104311 75 59 0.0 0.0 0.00 0.00 0.00 82 1015.4
20260906103809 75 59 0.0 0.0 0.00 0.00 0.00 82 1015.1
20260906103303 75 59 0.0 0.0 0.00 0.00 0.00 82 1015.1
20260906102759 75 59 0.0 0.0 0.00 0.00 0.00 82 1015.1
20260906102257 75 59 0.0 0.0 0.00 0.00 0.00 82 1015.1
20260906101753 75 59 0.0 0.0 0.00 0.00 0.00 82 1015.1
20260906101248 75 59 0.0 0.0 0.00 0.00 0.00 82 1015.1
20260906100744 74 59 0.0 0.0 0.00 0.00 0.00 83 1014.8
20260906100243 74 61 0.0 0.0 0.00 0.00 0.00 83 1015.1
20260906095738 74 61 0.0 0.0 0.00 0.00 0.00 84 1015.1
20260906095233 74 63 0.0 0.0 0.00 0.00 0.00 84 1015.1
20260906094732 74 63 0.0 0.0 0.00 0.00 0.00 84 1015.1
20260906094228 74 61 0.0 0.0 0.00 0.00 0.00 84 1015.1
20260906093724 74 63 0.0 0.0 0.00 0.00 0.00 83 1015.1
20260906093220 74 63 0.0 0.0 0.00 0.00 0.00 83 1015.1
20260906092715 74 61 0.0 0.0 0.00 0.00 0.00 83 1015.1
20260906092214 74 59 0.0 0.0 0.00 0.00 0.00 82 1015.1
20260906091711 74 61 0.0 0.0 0.00 0.00 0.00 83 1015.1
20260906091207 74 59 0.0 0.0 0.00 0.00 0.00 82 1015.1
20260906090703 75 59 0.0 0.0 0.00 0.00 0.00 82 1015.1
20260906090202 75 62 0.0 0.0 0.00 0.00 0.00 81 1015.1
20260906085701 75 62 0.0 0.0 0.00 0.00 0.00 81 1015.4
20260906085154 75 62 0.0 0.0 0.00 0.00 0.00 81 1015.4
20260906084655 75 62 0.0 0.0 0.00 0.00 0.00 80 1015.4
20260906084149 75 62 0.0 0.0 0.00 0.00 0.00 79 1015.4
20260906083643 76 66 0.0 0.0 0.00 0.00 0.00 79 1015.1
20260906083139 76 81 0.0 0.0 0.00 0.00 0.00 78 1015.4
20260906082634 76 112 0.0 0.0 0.00 0.00 0.00 77 1015.4
20260906082130 76 111 0.0 1.0 0.00 0.00 0.00 77 1015.4
20260906081626 77 127 0.0 1.0 0.00 0.00 0.00 77 1015.4
20260906081120 77 51 0.0 1.0 0.00 0.00 0.00 76 1015.4
20260906080617 77 209 0.0 2.0 0.00 0.00 0.00 76 1015.8
20260906080113 77 229 0.0 1.0 0.00 0.00 0.00 76 1015.8
20260906075612 77 163 0.0 1.0 0.00 0.00 0.00 75 1015.8
20260906075107 77 250 0.0 1.0 0.00 0.00 0.00 75 1015.8
20260906074602 78 176 0.0 2.0 0.00 0.00 0.00 74 1015.8
20260906074101 78 247 0.0 1.0 0.00 0.00 0.00 73 1015.8
20260906073556 78 237 0.0 1.0 0.00 0.00 0.00 73 1016.2
20260906073046 78 288 0.0 1.0 0.00 0.00 0.00 72 1016.2
20260906072541 78 244 2.0 3.0 0.00 0.00 0.00 72 1016.2
20260906072037 78 89 0.0 2.0 0.00 0.00 0.00 71 1016.2
20260906071533 78 250 0.0 3.0 0.00 0.00 0.00 71 1016.5
20260906071028 78 119 0.0 3.0 0.00 0.00 0.00 72 1016.5
20260906070524 78 188 0.0 1.0 0.00 0.00 0.00 72 1016.5
20260906070020 78 173 1.0 1.0 0.00 0.00 0.00 72 1016.5
20260906065519 78 145 0.0 1.0 0.00 0.00 0.00 71 1016.2
20260906065015 78 183 0.0 4.0 0.00 0.00 0.00 71 1016.5
20260906064511 78 352 1.0 1.0 0.00 0.00 0.00 71 1015.8
20260906064005 79 130 0.0 1.0 0.00 0.00 0.00 71 1016.5
20260906063501 79 137 1.0 1.0 0.00 0.00 0.00 71 1016.2
20260906063001 79 181 1.0 1.0 0.00 0.00 0.00 71 1016.5
20260906062450 79 145 0.0 1.0 0.00 0.00 0.00 71 1016.5
20260906061945 79 232 0.0 0.0 0.00 0.00 0.00 70 1016.5
20260906061436 79 123 0.0 0.0 0.00 0.00 0.00 70 1016.5
20260906060936 80 100 0.0 0.0 0.00 0.00 0.00 69 1016.5
20260906060433 80 190 0.0 1.0 0.00 0.00 0.00 69 1016.5
20260906055929 80 87 0.0 1.0 0.00 0.00 0.00 69 1016.5
20260906055425 80 91 1.0 2.0 0.00 0.00 0.00 68 1016.5
20260906054920 80 300 0.0 1.0 0.00 0.00 0.00 68 1016.5
20260906054415 81 148 0.0 1.0 0.00 0.00 0.00 67 1016.5
20260906053911 81 106 0.0 1.0 0.00 0.00 0.00 67 1016.5
20260906053406 81 115 0.0 1.0 0.00 0.00 0.00 66 1016.9
20260906052902 81 12 0.0 1.0 0.00 0.00 0.00 66 1016.5
20260906052358 81 181 0.0 3.0 0.00 0.00 0.00 66 1016.5
20260906051855 82 97 0.0 2.0 0.00 0.00 0.00 65 1016.5
20260906051354 82 207 2.0 3.0 0.00 0.00 0.00 65 1016.5
20260906050850 82 125 1.0 3.0 0.00 0.00 0.00 65 1016.5
20260906050345 82 283 1.0 4.0 0.00 0.00 0.00 64 1016.5
20260906045843 82 281 2.0 3.0 0.00 0.00 0.00 64 1016.5
20260906045338 82 113 1.0 2.0 0.00 0.00 0.00 63 1016.5
20260906044835 83 22 1.0 2.0 0.00 0.00 0.00 63 1016.5
20260906044334 83 162 2.0 3.0 0.00 0.00 0.00 62 1016.5
20260906043830 83 358 1.0 4.0 0.00 0.00 0.00 62 1016.5
20260906043326 83 181 3.0 6.0 0.00 0.00 0.00 62 1016.5
20260906042827 83 118 0.0 4.0 0.00 0.00 0.00 62 1016.9
20260906042325 83 148 1.0 6.0 0.00 0.00 0.00 62 1016.5
20260906041821 83 285 2.0 4.0 0.00 0.00 0.00 62 1016.5
20260906041316 84 173 1.0 4.0 0.00 0.00 0.00 61 1016.5
20260906040811 84 256 1.0 4.0 0.00 0.00 0.00 61 1016.5
20260906040307 84 11 1.0 3.0 0.00 0.00 0.00 60 1016.5
20260906035802 84 66 1.0 4.0 0.00 0.00 0.00 60 1016.5
20260906035257 84 119 2.0 6.0 0.00 0.00 0.00 59 1016.5
20260906034757 84 126 0.0 2.0 0.00 0.00 0.00 58 1016.2
20260906034252 84 49 0.0 2.0 0.00 0.00 0.00 56 1016.2
20260906033748 84 125 2.0 3.0 0.00 0.00 0.00 55 1016.2
20260906033247 84 173 1.0 3.0 0.00 0.00 0.00 54 1016.2
20260906032744 84 127 1.0 1.0 0.00 0.00 0.00 53 1016.2
20260906032244 84 215 1.0 2.0 0.00 0.00 0.00 53 1015.8
20260906031739 84 94 0.0 1.0 0.00 0.00 0.00 53 1015.8
20260906031235 84 180 1.0 1.0 0.00 0.00 0.00 53 1015.8
20260906030734 84 129 0.0 1.0 0.00 0.00 0.00 53 1015.4
20260906030229 84 189 1.0 2.0 0.00 0.00 0.00 53 1015.1
20260906025729 84 118 1.0 2.0 0.00 0.00 0.00 53 1015.1
20260906025224 84 114 0.0 0.0 0.00 0.00 0.00 54 1015.4
20260906024722 84 149 0.0 0.0 0.00 0.00 0.00 54 1015.1
20260906024222 84 109 0.0 0.0 0.00 0.00 0.00 53 1015.1
20260906023718 84 108 0.0 0.0 0.00 0.00 0.00 53 1014.8
20260906023213 84 284 0.0 1.0 0.00 0.00 0.00 53 1014.8
20260906022708 84 161 0.0 0.0 0.00 0.00 0.00 54 1014.8
20260906022203 83 208 0.0 0.0 0.00 0.00 0.00 54 1014.8
20260906021659 83 208 0.0 0.0 0.00 0.00 0.00 54 1014.8
20260906021157 84 208 0.0 0.0 0.00 0.00 0.00 54 1014.4
20260906020652 84 208 0.0 0.0 0.00 0.00 0.00 53 1014.4
20260906020147 84 208 0.0 0.0 0.00 0.00 0.00 53 1014.1
20260906015642 84 208 0.0 0.0 0.00 0.00 0.00 53 1014.4
20260906015140 84 208 0.0 0.0 0.00 0.00 0.00 53 1014.1
20260906014635 84 208 0.0 0.0 0.00 0.00 0.00 53 1014.4
20260906014131 85 208 0.0 0.0 0.00 0.00 0.00 52 1014.4
20260906013626 86 208 0.0 0.0 0.00 0.00 0.00 52 1014.1
20260906013122 86 208 0.0 0.0 0.00 0.00 0.00 51 1014.1
20260906012616 86 208 0.0 0.0 0.00 0.00 0.00 50 1014.1
20260906012116 87 208 0.0 0.0 0.00 0.00 0.00 49 1014.1
20260906011612 87 208 0.0 0.0 0.00 0.00 0.00 49 1014.1
20260906011107 87 164 0.0 1.0 0.00 0.00 0.00 48 1014.1
20260906010602 88 131 0.0 1.0 0.00 0.00 0.00 48 1014.1
20260906010058 88 116 0.0 0.0 0.00 0.00 0.00 47 1014.1
20260906005557 89 168 0.0 1.0 0.00 0.00 0.00 47 1013.6
20260906005057 89 142 0.0 1.0 0.00 0.00 0.00 46 1014.1
20260906004556 90 142 1.0 1.0 0.00 0.00 0.00 46 1014.1
20260906004051 90 146 0.0 1.0 0.00 0.00 0.00 45 1013.6
20260906003546 91 160 1.0 2.0 0.00 0.00 0.00 44 1014.1
20260906003043 91 143 0.0 1.0 0.00 0.00 0.00 43 1014.1
20260906002542 92 141 0.0 1.0 0.00 0.00 0.00 42 1013.6
20260906002037 92 152 2.0 2.0 0.00 0.00 0.00 42 1013.6
20260906001533 93 134 1.0 4.0 0.00 0.00 0.00 41 1013.6
20260906001027 93 146 1.0 2.0 0.00 0.00 0.00 40 1013.6
20260906000523 93 146 0.0 2.0 0.00 0.00 0.00 40 1013.6
20260906000018 93 88 0.0 1.0 0.00 0.00 0.00 40 1013.6
20260905235511 94 128 1.0 2.0 0.00 0.00 0.00 40 1013.6
20260905235007 94 112 1.0 2.0 0.00 0.00 0.00 40 1013.6